OBJECT AT, 68457

Orbit data source: Space-Track

You're viewing an Uncataloged Satellite

Recently launched and/or uncataloged satellites may have evolving metadata. Metadata may include but not limited to: Owner, Maufacturer, Bus, Motor, and Mission.

OBJECT AT, 68457 is a satellite in SSO that was launched on Mon, 30 Mar 2026 UTC via an FALCON 9 launch vehicle from the Air Force Western Test Range (AFWTR). Unknown objects in Earth's orbit typically refer to objects detected orbiting the Earth but have not yet been identified or cataloged. These objects could be anything from previously untracked satellites, spent rocket stages, debris from satellite collisions, or even natural meteoroids temporarily captured by Earth's gravity.

Loading next visibility...
Identifier
68457, 2026-067AT
Orbit
SSO
Country
Flag of TBDTBD
Related business
None
Manufacturer
Unknown
Mission
Operational spacecraft
Bus & Motor
Unknown
Mass
Unknown
Launch date (UTC)
2026-03-30 (1 month ago)
Launch vehicle
FALCON 9
Launch site
Air Force Western Test Range (AFWTR)
Object type
Unknown
Shape & HBR
Unknown shape, 1.1 m
Radar Cross Section
RCS unknown

Expand to show TLE details & history
Last TLE update: 15 hours ago

TLE from 15 hours ago
0 OBJECT AT
1 68457U 26067AT  26127.13182817  .00007545  00000-0  36662-3 0  9997
2 68457  97.4529  86.2308 0003772 109.8798 250.2843 15.18717382  5716
Epoch: 2026-05-07T03:09Z
TLE epoch observation values (Epoch: 2026-05-07T03:09:49.953Z)
Latitude
-0.00005°
Longitude
173.79031°
Altitude
513.681 km
Speed
7.606 km/s
True Right ascension
05h 44m 55s
True Declination
0° 00' 00"
Sunlit
Object was in daylight at epoch
Visualization orbit readout
Latitude
Unknown
Longitude
Unknown
Altitude
Unknown
Speed
Unknown
Apparent Right ascension
Unknown
Apparent Declination
Unknown
Sunlit
N/A
Visualization observer readout
Local Sidereal Time
01:58:17
Azimuth
Unknown
Elevation
Unknown
Doppler factor
Unknown
Orbital elements
Apogee altitude
509.282 km
Perigee altitude
504.089 km
Semi-major axis
6,884.822 km
Eccentricity
0.00038
Inclination
97.4529°
RAAN
86.2308°
Arg. of periapsis
109.8798°
True anomaly
250.24362°
Mean anomaly
250.2843°
Eccentric anomaly
250.26396°
Mean motion
3.7993 °/min
Orbital period
94.75 mins
BSTAR
0.00036662
Loading maneuver chart data...
Computing Atmospheric mass density...
Loading historical data...
Loading historical data...
Loading historical data...
Loading historical data...
Loading historical data...
Loading historical data...
Loading historical data...

Documentation

Showing up to 5 results
|